Regional Weather Roundup
Issued by NWS

Home | Current Version | Previous Version | Graphics & Text | Print | Product List | Glossary On
Versions: 1 2 3 4 5 6 7 8 9 10 11 12 13 14 15 16 17 18 19 20 21 22 23 24 25 26 27 28 29 30 31 32 33 34 35 36 37 38 39 40 41 42 43 44 45 46 47 48 49 50
000
ASUS43 KFSD 231502
RWRSD

WEATHER ROUNDUP FOR SOUTH DAKOTA
NATIONAL WEATHER SERVICE SIOUX FALLS SD
1000 AM CDT SAT SEP 23 2017

NOTE: "FAIR" INDICATES FEW OR NO CLOUDS BELOW 12,000 FEET WITH NO
SIGNIFICANT WEATHER AND/OR OBSTRUCTIONS TO VISIBILITY.


SDZ001>005-009-010-012>017-231600-
NORTHWEST AND NORTH CENTRAL SOUTH DAKOTA

CITY           SKY/WX    TMP DP  RH WIND       PRES   REMARKS
BUFFALO          N/A     44  40  85 NE8       30.05R
FAITH            N/A     46  46 100 N14       30.08R
MOBRIDGE       CLOUDY    52  47  83 N14       30.03R
$$

SDZ012>016-024>037-041>051-057-063-072>074-231600-
SOUTHWEST AND SOUTH CENTRAL SOUTH DAKOTA

CITY           SKY/WX    TMP DP  RH WIND       PRES   REMARKS
RAPID CTY ARPT NOT AVBL
PIERRE         CLOUDY    50  47  89 N14       30.02R
CUSTER         CLOUDY    40  38  93 NW7       30.05S
ELLSWORTH AFB  CLOUDY    44  44 100 N17       30.03F
PHILIP         CLOUDY    49  45  86 N14       30.05S
PINE RIDGE     CLOUDY    46  43  89 N7        30.05R
SPEARFISH      PTSUNNY   41  41 100 NE6       30.09F
WINNER         LGT RAIN  51  50  96 N10       30.01F
$$

SDZ004>011-016>023-039-040-231600-
NORTHEAST SOUTH DAKOTA

CITY           SKY/WX    TMP DP  RH WIND       PRES   REMARKS
ABERDEEN       CLOUDY    52  50  93 NE3       30.05R
WATERTOWN      CLOUDY    55  54  96 NE10      29.98R
BROOKINGS      CLOUDY    60  57  89 NE5       29.98R
SISSETON         N/A     55  53  93 N9        30.00R
$$

SDZ017-020-022-023-036>040-048>070-231600-
SOUTHEAST SOUTH DAKOTA

CITY           SKY/WX    TMP DP  RH WIND       PRES   REMARKS
SIOUX FALLS    CLOUDY    65  63  93 E7        29.97R
HURON          CLOUDY    54  53  97 N13       29.98R
CHAMBERLAIN    LGT RAIN  53  53 100 N8G20     29.99F
MITCHELL       CLOUDY    57  54  89 N7        29.99R
YANKTON        CLOUDY    59  55  87 NE5       29.97R
$$

ABBREVIATIONS USED IN REMARKS
   TC - TEMPERATURE IN CELSIUS
  WCI - WIND CHILL INDEX
   HX - HEAT INDEX
  VSB - VISIBILITY





USA.gov is the U.S. government's official web portal to all federal, state and local government web resources and services.